[[{"header":{"parameterUnit":"m.s-1","parameterCategory":1,"la1":30.2991,"la2":30.254,"lo1":-89.0895,"lo2":-89.0444,"dy":0.0017,"dx":0.0017,"nx":28,"ny":28,"refTime":"2025-01-22T03:00:00:Z","depth":0,"parameterNumber":2,"parameterNumberName":"U-component_of_WINDS"},"data":[0,0,0,0,0,0,0,0,0,0,0,0,0,0,0,0,0,0,0,0,0,0,0,0,0,0,0,0,0,0,0,0,0,0,0,0,0,0,0,0,0,0,0,0,0,0,0,0,0,0,0,0,0,0,0,0,0,0,-1.553,-1.553,0,-1.5602,-1.5603,-1.5604,-1.5524,-1.5521,-1.5518,-1.5515,-1.5591,-1.5596,-1.5601,0,0,0,0,0,0,0,0,0,0,0,0,0,-1.5322,-1.5326,-1.5529,-1.553,-1.5531,-1.5602,-1.5603,-1.5604,-1.5525,-1.5521,-1.5518,-1.5514,-1.559,-1.5595,-1.5601,0,0,0,0,0,0,0,0,0,0,0,0,0,-1.5405,-1.5328,-1.5529,-1.55,-1.5498,-1.5602,-1.5603,-1.5604,-1.5526,-1.5521,-1.5517,-1.5512,-1.5588,-1.5595,-1.5602,-1.5738,0,0,-1.5624,-1.5627,0,0,0,0,0,0,0,0,-1.5401,-1.5413,-1.5504,-1.5502,-1.5501,-1.5549,-1.5557,-1.5649,-1.5527,-1.5515,-1.5515,-1.551,-1.5581,-1.5589,-1.5612,-1.5741,-1.5745,-1.5625,-1.5629,-1.5632,-1.5634,0,0,0,0,0,0,0,-1.5395,-1.5409,-1.5558,-1.5505,-1.5503,-1.5484,-1.549,-1.5574,-1.5573,-1.5516,-1.551,-1.552,-1.5579,-1.5606,-1.5614,-1.5746,-1.5625,-1.5631,-1.5636,-1.5638,-1.5989,-1.5993,0,0,0,0,0,0,-1.5392,-1.5405,-1.5556,-1.556,-1.5438,-1.5491,-1.5499,-1.5538,-1.5572,-1.5572,-1.5524,-1.5516,-1.5595,-1.5605,-1.5616,-1.5777,-1.5632,-1.5639,-1.5643,-1.5984,-1.599,-1.5995,0,0,0,0,0,0,-1.5388,-1.5407,-1.5553,-1.5481,-1.5498,-1.5499,-1.5545,-1.5542,-1.5568,-1.5578,-1.5577,-1.5551,-1.5592,-1.5606,-1.5708,-1.5779,-1.5642,-1.5649,-1.5978,-1.5986,-1.5992,-1.6101,0,0,0,0,0,0,-1.5383,-1.5406,-1.5458,-1.5483,-1.5502,-1.5644,-1.5549,-1.5547,-1.5581,-1.5571,-1.5603,-1.5604,-1.559,-1.5697,-1.5715,-1.5786,-1.5655,-1.5972,-1.5981,-1.599,-1.6091,-1.6111,-1.6128,0,0,0,0,0,-1.5375,-1.5486,-1.5461,-1.5479,-1.5567,-1.5649,-1.566,-1.5641,-1.5587,-1.5639,-1.5645,-1.5603,-1.5767,-1.5708,-1.5728,-1.5802,-1.5967,-1.5979,-1.5989,-1.6083,-1.6107,-1.6128,0,0,0,0,0,0,-1.547,-1.5489,-1.5461,-1.5583,-1.5615,-1.5635,-1.57,-1.5667,-1.5716,-1.5705,-1.5679,-1.5687,-1.5796,-1.5808,-1.5743,-1.5935,-1.5858,-1.5874,-1.5923,-1.5946,-1.5964,-1.596,-1.5661,0,0,0,0,0,-1.5504,-1.5569,-1.5581,-1.5688,-1.5705,-1.57,-1.5735,-1.5717,-1.5749,-1.5762,-1.5775,-1.5809,-1.5867,-1.5907,-1.5962,-1.6091,-1.6097,-1.6152,-1.617,-1.6186,-1.62,-1.6269,-1.6294,-1.6032,-1.6031,-1.6031,0,0,-1.5578,-1.5596,-1.5638,-1.5707,-1.573,-1.5797,-1.5712,-1.5787,-1.5836,-1.5774,-1.5871,-1.5882,-1.5917,-1.6033,-1.6085,-1.6047,-1.6273,-1.62,-1.6212,-1.6218,-1.6283,-1.6308,-1.633,-1.6039,-1.6038,-1.6037,0,0,-1.5745,-1.5765,-1.5855,-1.5879,-1.5914,-1.5909,-1.5931,-1.5956,-1.5961,-1.6058,-1.6012,-1.607,-1.6172,-1.6199,-1.6226,-1.64,-1.6364,-1.6419,-1.6517,-1.6585,-1.6605,-1.6624,-1.6687,-1.6709,-1.6433,-1.6433,-1.6433,0,-1.5832,-1.5931,-1.5906,-1.5984,-1.6016,-1.5961,-1.6052,-1.6076,-1.6128,-1.6151,-1.6107,-1.6233,-1.6253,-1.6374,-1.6417,-1.644,-1.6464,-1.6417,-1.6604,-1.6622,-1.6639,-1.6699,-1.6722,-1.6439,-1.6439,-1.6438,-1.6437,0,-1.6036,-1.6105,-1.6174,-1.6224,-1.6263,-1.6347,-1.6335,-1.6378,-1.6356,-1.6356,-1.6454,-1.6475,-1.6533,-1.656,-1.654,-1.6679,-1.6654,-1.6608,-1.6531,-1.6671,-1.6727,-1.6749,-1.6449,-1.6446,-1.6444,-1.6443,0,0,-1.6268,-1.6302,-1.6328,-1.6349,-1.6382,-1.6435,-1.6516,-1.6572,-1.6609,-1.6645,-1.6713,-1.6799,-1.6756,-1.6786,-1.6768,-1.6827,-1.6964,-1.6773,-1.6773,-1.6809,-1.7119,-1.7155,-1.7182,-1.6939,-1.6943,-1.6947,-1.7116,0,-1.6437,-1.6578,-1.6557,-1.6693,-1.6756,-1.6703,-1.6774,-1.6802,-1.6803,-1.6857,-1.6858,-1.692,-1.6858,-1.6876,-1.6932,-1.6936,-1.7027,-1.6923,-1.7002,-1.7006,-1.6998,-1.7211,-1.725,-1.7409,-1.7138,-1.7142,-1.7144,0,-1.6654,-1.6698,-1.684,-1.6862,-1.6887,-1.6951,-1.7,-1.7052,-1.7082,-1.7078,-1.7111,-1.7082,-1.7162,-1.7082,-1.7192,-1.7122,-1.7153,-1.716,-1.7165,-1.7174,-1.7085,-1.7227,-1.746,-1.7484,-1.7178,-1.7176,-1.7173,0,-1.6811,-1.6904,-1.7001,-1.7021,-1.7049,-1.7095,-1.7109,-1.7134,-1.7168,-1.721,-1.7232,-1.7283,-1.7312,-1.7352,-1.7336,-1.7279,-1.745,-1.7369,-1.745,-1.7451,-1.7491,-1.7489,-1.7734,-1.7508,-1.7507,-1.7507,-1.7506,0,-1.7003,-1.7093,-1.7072,-1.7132,-1.723,-1.7204,-1.7302,-1.7309,-1.7331,-1.7391,-1.7347,-1.7405,-1.738,-1.7435,-1.7424,-1.7517,-1.753,-1.753,-1.7526,-1.7535,-1.7535,-1.7556,-1.7545,-1.7513,-1.7512,-1.751,-1.7509,0,-1.7196,-1.7186,-1.7288,-1.7305,-1.7311,-1.7383,-1.7397,-1.7453,-1.7449,-1.7526,-1.7542,-1.7538,-1.76,-1.7588,-1.7658,-1.7649,-1.7767,-1.7748,-1.7757,-1.7753,-1.7836,-1.7829,-1.8104,-1.8139,-1.789,-1.7892,-1.7894,0,-1.7321,-1.7388,-1.7412,-1.7448,-1.7465,-1.7525,-1.756,-1.7536,-1.7573,-1.7611,-1.7662,-1.7721,-1.7767,-1.7869,-1.7872,-1.7924,-1.7908,-1.8,-1.7915,-1.7922,-1.791,-1.7907,-1.7914,-1.8018,-1.8021,-1.8023,-1.8025,0,-1.7543,-1.7534,-1.7585,-1.7635,-1.7677,-1.7715,-1.7748,-1.7781,-1.7759,-1.7803,-1.7867,-1.7902,-1.7972,-1.8031,-1.8079,-1.8092,-1.8056,-1.8051,-1.8073,-1.8084,-1.8087,-1.8087,-1.7805,-1.8046,-1.8044,-1.8042,-1.8041,-1.804,-1.7707,-1.7764,-1.7789,-1.7847,-1.7869,-1.7901,-1.7954,-1.7957,-1.8009,-1.8064,-1.8046,-1.8118,-1.8144,-1.8205,-1.8223,-1.8279,-1.8245,-1.8276,-1.8284,-1.8293,-1.8303,-1.8076,-1.8288,-1.8287,-1.8286,-1.8286,-1.8285,0,-1.7928,-1.7941,-1.7994,-1.8042,-1.8087,-1.8047,-1.8081,-1.8122,-1.8186,-1.8213,-1.8259,-1.8331,-1.8387,-1.8393,-1.8446,-1.8489,-1.8474,-1.8504,-1.8501,-1.8505,-1.8331,-1.8307,-1.8515,-1.8515,-1.8515,-1.8515,-1.8515,-1.8515,-1.8048,-1.8143,-1.8137,-1.8241,-1.8253,-1.8323,-1.8346,-1.8375,-1.8396,-1.8479,-1.8525,-1.8528,-1.8546,-1.8599,-1.8649,-1.8649,-1.8671,-1.8708,-1.8702,-1.854,-1.8517,-1.8496,-1.8473,-1.8713,-1.8713,-1.8872,-1.8873,-1.8874]},{"header":{"parameterUnit":"m.s-1","parameterCategory":1,"la1":30.2991,"la2":30.254,"lo1":-89.0895,"lo2":-89.0444,"dy":0.0017,"dx":0.0017,"nx":28,"ny":28,"refTime":"2025-01-22T03:00:00:Z","depth":0,"parameterNumber":3,"parameterNumberName":"V-component_of_WINDS"},"data":[0,0,0,0,0,0,0,0,0,0,0,0,0,0,0,0,0,0,0,0,0,0,0,0,0,0,0,0,0,0,0,0,0,0,0,0,0,0,0,0,0,0,0,0,0,0,0,0,0,0,0,0,0,0,0,0,0,0,-6.6726,-6.6728,0,-6.6883,-6.6884,-6.6886,-6.6798,-6.6794,-6.6789,-6.6785,-6.6938,-6.6946,-6.6954,0,0,0,0,0,0,0,0,0,0,0,0,0,-6.6342,-6.635,-6.6726,-6.6728,-6.673,-6.6882,-6.6884,-6.6887,-6.6799,-6.6793,-6.6788,-6.6783,-6.6935,-6.6945,-6.6955,0,0,0,0,0,0,0,0,0,0,0,0,0,-6.6505,-6.6352,-6.6726,-6.6705,-6.6704,-6.6882,-6.6885,-6.6887,-6.68,-6.6793,-6.6787,-6.6781,-6.6932,-6.6944,-6.6956,-6.7161,0,0,-6.6993,-6.6998,0,0,0,0,0,0,0,0,-6.6496,-6.6519,-6.6706,-6.6706,-6.6706,-6.6814,-6.6805,-6.6979,-6.6801,-6.6763,-6.6785,-6.6778,-6.6902,-6.6916,-6.6959,-6.7168,-6.7175,-6.6994,-6.7002,-6.7007,-6.701,0,0,0,0,0,0,0,-6.6484,-6.6512,-6.6788,-6.6709,-6.6709,-6.6684,-6.67,-6.6838,-6.6867,-6.6766,-6.676,-6.678,-6.69,-6.6948,-6.6962,-6.7177,-6.6994,-6.7005,-6.7012,-6.7017,-6.7558,-6.7565,0,0,0,0,0,0,-6.6476,-6.6503,-6.6783,-6.6792,-6.6583,-6.6697,-6.6714,-6.6786,-6.6865,-6.6871,-6.6786,-6.6776,-6.693,-6.6948,-6.6967,-6.721,-6.7007,-6.7018,-6.7025,-6.7551,-6.756,-6.7567,0,0,0,0,0,0,-6.6468,-6.6502,-6.6776,-6.6646,-6.6679,-6.671,-6.6791,-6.6793,-6.684,-6.688,-6.6884,-6.6829,-6.6926,-6.695,-6.7113,-6.7215,-6.7024,-6.7035,-6.7543,-6.7554,-6.7563,-6.77,0,0,0,0,0,0,-6.6457,-6.6499,-6.658,-6.6649,-6.6687,-6.6923,-6.6798,-6.68,-6.6862,-6.685,-6.6922,-6.6927,-6.6923,-6.7096,-6.7125,-6.7228,-6.7044,-6.7534,-6.7548,-6.756,-6.7686,-6.7714,-6.7737,0,0,0,0,0,-6.6444,-6.6611,-6.6584,-6.6619,-6.6788,-6.6929,-6.695,-6.6944,-6.6871,-6.695,-6.6975,-6.6925,-6.7199,-6.7113,-6.7146,-6.7253,-6.7527,-6.7544,-6.7559,-6.7675,-6.7708,-6.7737,0,0,0,0,0,0,-6.6551,-6.662,-6.6591,-6.6786,-6.6853,-6.6914,-6.7014,-6.698,-6.7067,-6.7052,-6.7037,-6.7054,-6.7224,-6.7255,-6.7158,-6.7454,-6.7351,-6.7374,-6.7428,-6.746,-6.7485,-6.7473,-6.7054,0,0,0,0,0,-6.6598,-6.6709,-6.6762,-6.6929,-6.6964,-6.6984,-6.7045,-6.7034,-6.7101,-6.7128,-6.7165,-6.7231,-6.7331,-6.7397,-6.7492,-6.769,-6.7703,-6.778,-6.7805,-6.7826,-6.7846,-6.795,-6.7985,-6.762,-6.7619,-6.7619,0,0,-6.6695,-6.6746,-6.6817,-6.6952,-6.7002,-6.7114,-6.7008,-6.7132,-6.7214,-6.7146,-6.7303,-6.7332,-6.7403,-6.7585,-6.7666,-6.7616,-6.795,-6.7847,-6.7863,-6.7871,-6.797,-6.8005,-6.8036,-6.763,-6.7628,-6.7627,0,0,-6.6929,-6.698,-6.7124,-6.7177,-6.7255,-6.7266,-6.7301,-6.7368,-6.7385,-6.7543,-6.7493,-6.7589,-6.7763,-6.7815,-6.7865,-6.8117,-6.8072,-6.8147,-6.828,-6.8382,-6.8411,-6.8436,-6.8524,-6.8556,-6.8167,-6.8168,-6.8168,0,-6.7039,-6.721,-6.7201,-6.733,-6.7389,-6.7334,-6.7477,-6.7528,-6.7632,-6.7673,-6.7615,-6.7831,-6.7875,-6.8067,-6.8128,-6.8171,-6.8207,-6.8139,-6.8408,-6.8433,-6.8457,-6.854,-6.8573,-6.8176,-6.8175,-6.8174,-6.8173,0,-6.734,-6.7458,-6.7564,-6.7669,-6.774,-6.7875,-6.7884,-6.7956,-6.7939,-6.7955,-6.8114,-6.8165,-6.8268,-6.8313,-6.8296,-6.8502,-6.8468,-6.841,-6.8305,-6.85,-6.8578,-6.861,-6.8188,-6.8185,-6.8183,-6.8181,0,0,-6.7647,-6.7744,-6.7783,-6.7828,-6.791,-6.8,-6.813,-6.8233,-6.8295,-6.8368,-6.8475,-6.8623,-6.8569,-6.8625,-6.8613,-6.8703,-6.8896,-6.8633,-6.8634,-6.8679,-6.9122,-6.9165,-6.9202,-6.8868,-6.8874,-6.8879,-6.9116,0,-6.7885,-6.8117,-6.8112,-6.8326,-6.8434,-6.8382,-6.8495,-6.8556,-6.8575,-6.8666,-6.8685,-6.879,-6.8712,-6.8745,-6.8832,-6.8855,-6.8985,-6.8837,-6.8965,-6.8969,-6.8948,-6.9244,-6.929,-6.9511,-6.9146,-6.9152,-6.9155,0,-6.8194,-6.8279,-6.8505,-6.8568,-6.8613,-6.8716,-6.8808,-6.8898,-6.8963,-6.897,-6.9033,-6.9006,-6.9135,-6.9028,-6.9204,-6.9104,-6.9155,-6.9174,-6.9183,-6.9193,-6.9074,-6.9261,-6.9582,-6.9614,-6.9204,-6.92,-6.9196,0,-6.8393,-6.8564,-6.872,-6.8761,-6.884,-6.8912,-6.8948,-6.9008,-6.9069,-6.9149,-6.9188,-6.9281,-6.9332,-6.9403,-6.9401,-6.9324,-6.9578,-6.9472,-6.9585,-6.9585,-6.964,-6.9637,-6.9973,-6.9676,-6.9676,-6.9675,-6.9674,0,-6.8659,-6.8799,-6.8811,-6.8907,-6.906,-6.9052,-6.9203,-6.923,-6.9284,-6.9382,-6.9342,-6.9434,-6.9427,-6.9519,-6.9518,-6.9662,-6.9686,-6.9693,-6.969,-6.9696,-6.9695,-6.9729,-6.9713,-6.9684,-6.9682,-6.968,-6.9679,0,-6.8908,-6.8922,-6.9088,-6.9149,-6.9167,-6.9278,-6.9328,-6.9417,-6.9432,-6.9556,-6.9585,-6.9607,-6.9713,-6.9719,-6.9841,-6.984,-7.0015,-6.9996,-6.9994,-6.999,-7.0102,-7.0091,-7.0471,-7.0519,-7.0192,-7.0195,-7.0198,0,-6.9076,-6.9182,-6.9255,-6.9319,-6.9359,-6.9462,-6.9525,-6.9519,-6.9586,-6.9668,-6.9747,-6.985,-6.9932,-7.0103,-7.0128,-7.022,-7.0203,-7.0329,-7.0216,-7.0217,-7.0202,-7.0196,-7.0205,-7.0351,-7.0355,-7.0358,-7.036,0,-6.9373,-6.9374,-6.9467,-6.9563,-6.9639,-6.9714,-6.9782,-6.9836,-6.9838,-6.9914,-7.0024,-7.0087,-7.0212,-7.0314,-7.0403,-7.0436,-7.0398,-7.0396,-7.0426,-7.0432,-7.0426,-7.0429,-7.0052,-7.0387,-7.0384,-7.0382,-7.0381,-7.0379,-6.9585,-6.9676,-6.9741,-6.9845,-6.9897,-6.9962,-7.0049,-7.0074,-7.0166,-7.0269,-7.0259,-7.038,-7.044,-7.0556,-7.0597,-7.0688,-7.0645,-7.069,-7.0701,-7.0712,-7.0723,-7.0412,-7.0705,-7.0704,-7.0703,-7.0703,-7.0702,0,-6.9878,-6.9917,-7.0013,-7.0112,-7.0193,-7.0152,-7.0226,-7.0296,-7.0403,-7.0464,-7.0545,-7.0669,-7.0767,-7.08,-7.0894,-7.0961,-7.0946,-7.0986,-7.098,-7.0988,-7.0758,-7.0721,-7.0996,-7.0996,-7.0996,-7.0996,-7.0996,-7.0996,-7.004,-7.0192,-7.02,-7.0375,-7.0412,-7.0532,-7.0577,-7.0636,-7.0684,-7.0825,-7.0907,-7.0928,-7.0976,-7.1073,-7.116,-7.1167,-7.1202,-7.125,-7.1249,-7.1034,-7.1004,-7.0976,-7.0941,-7.1258,-7.1258,-7.1471,-7.1473,-7.1474]}]]